Retour au catalogue

DELTA 1 DEB

ActifSSO
NORAD 2223·DEBRIS·🇺🇸 United States

Lancé Feb 28, 1966 depuis Cape Canaveral Space Force Station

Loading…

Prochains Passages (prochaines 24 heures)

TLE

FraisSource: Space-Track

Époque: Sep 14, 2026, 00:26 UTC

1 02223U 66016C   26257.01858163 -.00000031  00000-0  46742-4 0  9994
2 02223 100.7252 282.3229 0093925  22.7355   7.1861 12.87776937838399

Suivez DELTA 1 DEB en temps réel avec AllMySat

Download on the App Store